Погода в Керманшахе

Иран     34°19′26″N   47°04′24″E
темп.,
°C
ветер,
м/с
пор.,
м/с
влажн.,
%
обл.,
%
осадки,
мм/ч
давл.,
гПа
погр.,
м
25 февраля, чт
чт2500:30+5всв114299 0.0 101822
03:30+3ссз226299 0.0 101850
06:30+1ссв2481100 0.6 1020438
09:30+1ссв2383100 0.9 1022457
12:30+5всв4552100 0.0 10201051
15:30+7всв444868 0.0 10181193
18:30+6всв455477 0.0 1020647
21:30+3в356963 0.0 1021218
26 февраля, пт
пт2600:30+1всв22800 0.0 102239
03:300всв22810 0.0 102222
06:30−1всв22800 0.0 102225
09:30+2всв23590 0.0 1022637
12:30+6всв23450 0.0 1019976
15:30+8всв22380 0.0 10171389
18:30+6вюв23480 0.0 101764
21:30+4в22550 0.0 101928
27 февраля, сб
сб2700:30+3в22590 0.0 101922
03:30+2всв11640 0.0 101922
06:30+1в12690 0.0 101922
09:30+5в23520 0.0 1019431
12:30+9вюв32370 0.0 1017989
15:30+11юз22280 0.0 10151599
18:30+8ююз12380 0.0 101525
21:30+6ююз11570 0.0 101622
28 февраля, вс
вс2800:30+5ю11540 0.0 101622
03:30+3ю11530 0.0 101622
06:30+3ююв12552 0.0 101622
09:30+7ююв244511 0.0 1016481
12:30+11ю45317 0.0 10141435
15:30+12ююз442837 0.0 10132040
18:30+8зюз2340100 0.0 101445
21:30+6юв224592 0.0 101629
1 марта, пн
пн100:30+4ю12580 0.0 101722
03:30+3ююз11620 0.0 101722
06:30+2з006414 0.0 101722
09:30+6юз124937 0.0 1018478
12:30+10ю434272 0.0 10171558
15:30+11юз343475 0.0 10152038
18:30+9зюз455093 0.0 10151010
21:30+8ююв015882 0.1 101749